Location: De Har
(53.3413°N, 6.6858°E)
Time: 17:19:10
(UTC+00:00)

NOSS 3-4 (C) - Pass Details

Date: 22 April 2026
Orbit: 773 x 1438 km, 63.4° (Epoch: 26 December)

Event Time Altitude Azimuth Distance (km) Brightness Sun altitude
Rises 01:43:20 0° 311° (NW) 3,597 6.6 -18.7°
Reaches altitude 10° 01:45:43 10° 312° (NW) 2,731 5.9 -18.5°
Maximum altitude 01:52:13 82° 41° (NE) 1,116 3.8 -18.0°
Drops below altitude 10° 01:59:55 10° 130° (SE) 3,210 6.2 -17.3°
Sets 02:02:54 0° 131° (SE) 4,264 6.8 -17.0°
